sat.trackr.live / text

‹ back to catalog

WGS 10 (USA 291)

NORAD 44071 · 2019-014A

PAYLOAD ACTIVE UNKNOWN

§ Identity

Operator
Country
US
Launch date
2019-03-16
Launch site
AFETR
Launch vehicle
Mass (kg)
RCS (m²)

Purposes: comms

External: N2YO · Heavens-Above · Gunter

§ Orbital elements

Epoch: 2026-09-19T03:34:22.344672Z

Period
1,436.08 min
Inclination
0.0060°
Eccentricity
0.0000332
Mean motion
1.00272625 rev/d
Perigee alt
35,785.0 km
Apogee alt
35,787.8 km
Semi-major
42,164.5 km
B*
0.0000e+0
RAAN
164.8138°
Arg perigee
275.5666°
Mean anomaly
31.5857°
Rev number
2,756

§ Raw data

WGS 10 (USA 291)1 44071U 19014A   26262.14886973  .00000042  00000+0  00000+0 0  99992 44071   0.0060 164.8138 0000332 275.5666  31.5857  1.00272625 27564

JSON: /api/v1/satellites/44071 · /tle

For live sub-satellite position, see the globe view (requires WebGL).

§ Visibility from observer

Set your observer location to see the next 7 days of passes ≥ 10°. The values pass through the URL so the page stays shareable.

No JS? Fill the form by hand. The geolocation button needs JavaScript.